• In United Kingdom
  • List of Countries
  • For 7 days
  • Water Temperature
  • Satellite Maps
  • Weather Map
  • Weather Widgets
  • user-avatar
    Login

    Hourly Weather Malanje

    Today, 21 July, Saturday

    Time Temperature Precipitation Wind Pressure Humidity
    00:00 +21°C° 0 mm 1 mps 666 mmHg 33%
    01:00 +20°C° 0 mm 1 mps 666 mmHg 36%
    02:00 +20°C° 0 mm 1 mps 666 mmHg 36%
    03:00 +19°C° 0 mm 1 mps 666 mmHg 36%
    04:00 +18°C° 0 mm 2 mps 666 mmHg 36%
    05:00 +18°C° 0 mm 2 mps 666 mmHg 36%
    06:00 +18°C° 0 mm 2 mps 666 mmHg 36%
    07:00 +18°C° 0 mm 2 mps 667 mmHg 36%
    08:00 +21°C° 0 mm 3 mps 667 mmHg 31%
    09:00 +25°C° 0 mm 3 mps 668 mmHg 27%
    10:00 +28°C° 0 mm 3 mps 668 mmHg 22%
    11:00 +29°C° 0 mm 3 mps 668 mmHg 20%
    12:00 +31°C° 0 mm 3 mps 668 mmHg 18%
    13:00 +32°C° 0 mm 2 mps 668 mmHg 16%
    14:00 +32°C° 0 mm 2 mps 668 mmHg 15%
    15:00 +32°C° 0 mm 2 mps 667 mmHg 14%
    16:00 +33°C° 0 mm 1 mps 667 mmHg 14%
    17:00 +30°C° 0 mm 1 mps 666 mmHg 16%
    18:00 +28°C° 0 mm 1 mps 666 mmHg 19%
    19:00 +25°C° 0 mm 1 mps 666 mmHg 22%
    20:00 +25°C° 0 mm 1 mps 666 mmHg 23%
    21:00 +24°C° 0 mm 1 mps 667 mmHg 24%
    22:00 +23°C° 0 mm 1 mps 667 mmHg 25%
    23:00 +22°C° 0 mm 1 mps 667 mmHg 27%

    Tomorrow, 22 July, Sunday

    Time Temperature Precipitation Wind Pressure Humidity
    00:00 +22°C° 0 mm 1 mps 667 mmHg 28%
    01:00 +21°C° 0 mm 1 mps 666 mmHg 30%
    02:00 +20°C° 0 mm 1 mps 666 mmHg 32%
    03:00 +19°C° 0 mm 1 mps 666 mmHg 34%
    04:00 +19°C° 0 mm 1 mps 666 mmHg 37%
    05:00 +19°C° 0 mm 1 mps 666 mmHg 35%
    06:00 +18°C° 0 mm 2 mps 666 mmHg 33%
    07:00 +18°C° 0 mm 2 mps 667 mmHg 30%
    08:00 +21°C° 0 mm 2 mps 668 mmHg 26%
    09:00 +25°C° 0 mm 3 mps 668 mmHg 22%
    10:00 +29°C° 0 mm 3 mps 669 mmHg 17%
    11:00 +30°C° 0 mm 3 mps 669 mmHg 15%
    12:00 +33°C° 0 mm 3 mps 669 mmHg 14%
    13:00 +35°C° 0 mm 2 mps 668 mmHg 12%
    14:00 +34°C° 0 mm 2 mps 668 mmHg 11%
    15:00 +34°C° 0 mm 2 mps 667 mmHg 11%
    16:00 +34°C° 0 mm 2 mps 667 mmHg 11%
    17:00 +31°C° 0 mm 1 mps 666 mmHg 13%
    18:00 +29°C° 0 mm 1 mps 666 mmHg 14%
    19:00 +26°C° 0 mm 1 mps 666 mmHg 16%
    20:00 +25°C° 0 mm 1 mps 666 mmHg 17%
    21:00 +25°C° 0 mm 1 mps 667 mmHg 18%
    22:00 +24°C° 0 mm 1 mps 667 mmHg 19%
    23:00 +23°C° 0 mm 1 mps 667 mmHg 21%

    Day after tomorrow, 23 July, Monday

    Time Temperature Precipitation Wind Pressure Humidity
    00:00 +22°C° 0 mm 1 mps 667 mmHg 23%
    01:00 +21°C° 0 mm 1 mps 667 mmHg 25%
    02:00 +21°C° 0 mm 1 mps 666 mmHg 27%
    03:00 +20°C° 0 mm 1 mps 666 mmHg 29%
    04:00 +20°C° 0 mm 1 mps 666 mmHg 31%
    05:00 +19°C° 0 mm 2 mps 666 mmHg 30%
    06:00 +19°C° 0 mm 2 mps 667 mmHg 30%
    07:00 +19°C° 0 mm 3 mps 667 mmHg 30%
    08:00 +22°C° 0 mm 3 mps 668 mmHg 26%
    09:00 +26°C° 0 mm 4 mps 669 mmHg 23%
    10:00 +29°C° 0 mm 5 mps 670 mmHg 19%
    11:00 +32°C° 0 mm 4 mps 669 mmHg 17%
    12:00 +33°C° 0 mm 4 mps 669 mmHg 15%
    13:00 +35°C° 0 mm 3 mps 668 mmHg 13%
    14:00 +35°C° 0 mm 3 mps 668 mmHg 13%
    15:00 +35°C° 0 mm 3 mps 667 mmHg 13%
    16:00 +35°C° 0 mm 2 mps 667 mmHg 13%
    17:00 +31°C° 0 mm 2 mps 666 mmHg 15%
    18:00 +29°C° 0 mm 2 mps 666 mmHg 17%
    19:00 +27°C° 0 mm 1 mps 666 mmHg 20%
    20:00 +26°C° 0 mm 2 mps 667 mmHg 21%
    21:00 +25°C° 0 mm 2 mps 667 mmHg 22%
    22:00 +25°C° 0 mm 2 mps 668 mmHg 23%
    23:00 +24°C° 0 mm 2 mps 667 mmHg 24%

    24 July, Tuesday

    Time Temperature Precipitation Wind Pressure Humidity
    00:00 +23°C° 0 mm 1 mps 667 mmHg 26%
    01:00 +22°C° 0 mm 1 mps 667 mmHg 28%
    02:00 +21°C° 0 mm 2 mps 667 mmHg 30%
    03:00 +20°C° 0 mm 2 mps 667 mmHg 32%
    04:00 +20°C° 0 mm 2 mps 666 mmHg 34%
    05:00 +20°C° 0 mm 3 mps 667 mmHg 34%
    06:00 +20°C° 0 mm 3 mps 667 mmHg 34%
    07:00 +20°C° 0 mm 3 mps 667 mmHg 35%
    08:00 +23°C° 0 mm 4 mps 668 mmHg 30%
    09:00 +26°C° 0 mm 4 mps 669 mmHg 25%
    10:00 +29°C° 0 mm 4 mps 670 mmHg 20%
    11:00 +32°C° 0 mm 4 mps 669 mmHg 18%
    12:00 +33°C° 0 mm 3 mps 669 mmHg 16%
    13:00 +35°C° 0 mm 3 mps 668 mmHg 14%
    14:00 +34°C° 0 mm 3 mps 668 mmHg 14%
    15:00 +34°C° 0 mm 2 mps 667 mmHg 13%
    16:00 +34°C° 0 mm 2 mps 667 mmHg 13%
    17:00 +31°C° 0 mm 2 mps 667 mmHg 15%
    18:00 +29°C° 0 mm 2 mps 667 mmHg 17%
    19:00 +27°C° 0 mm 1 mps 667 mmHg 19%
    20:00 +26°C° 0 mm 1 mps 667 mmHg 20%
    21:00 +25°C° 0 mm 1 mps 667 mmHg 21%
    22:00 +24°C° 0 mm 1 mps 668 mmHg 22%
    23:00 +23°C° 0 mm 1 mps 667 mmHg 24%

    25 July, Wednesday

    Time Temperature Precipitation Wind Pressure Humidity
    00:00 +23°C° 0 mm 1 mps 667 mmHg 27%
    01:00 +22°C° 0 mm 1 mps 667 mmHg 29%
    02:00 +21°C° 0 mm 1 mps 666 mmHg 30%
    03:00 +20°C° 0 mm 2 mps 666 mmHg 32%
    04:00 +19°C° 0 mm 2 mps 666 mmHg 34%
    05:00 +19°C° 0 mm 2 mps 666 mmHg 34%
    06:00 +19°C° 0 mm 2 mps 667 mmHg 33%
    07:00 +19°C° 0 mm 3 mps 667 mmHg 32%
    08:00 +22°C° 0 mm 3 mps 668 mmHg 27%
    09:00 +26°C° 0 mm 3 mps 669 mmHg 22%
    10:00 +29°C° 0 mm 4 mps 669 mmHg 16%
    11:00 +31°C° 0 mm 3 mps 669 mmHg 15%
    12:00 +34°C° 0 mm 3 mps 668 mmHg 13%
    13:00 +35°C° 0 mm 2 mps 668 mmHg 12%
    14:00 +35°C° 0 mm 2 mps 667 mmHg 12%
    15:00 +34°C° 0 mm 1 mps 667 mmHg 11%
    16:00 +34°C° 0 mm 1 mps 666 mmHg 11%
    17:00 +32°C° 0 mm 1 mps 666 mmHg 13%
    18:00 +29°C° 0 mm 1 mps 666 mmHg 15%
    19:00 +27°C° 0 mm 1 mps 666 mmHg 17%
    20:00 +26°C° 0 mm 1 mps 667 mmHg 18%
    21:00 +25°C° 0 mm 1 mps 667 mmHg 19%
    22:00 +24°C° 0 mm 1 mps 667 mmHg 20%
    23:00 +23°C° 0 mm 1 mps 667 mmHg 28%

    26 July, Thursday

    Time Temperature Precipitation Wind Pressure Humidity
    00:00 +21°C° 0 mm 2 mps 666 mmHg 36%
    01:00 +20°C° 0 mm 2 mps 666 mmHg 43%
    02:00 +19°C° 0 mm 2 mps 666 mmHg 53%
    03:00 +19°C° 0 mm 1 mps 666 mmHg 62%
    04:00 +18°C° 0 mm 1 mps 665 mmHg 71%
    05:00 +18°C° 0 mm 1 mps 666 mmHg 71%
    06:00 +18°C° 0 mm 1 mps 666 mmHg 71%
    07:00 +18°C° 0 mm 1 mps 667 mmHg 71%
    08:00 +22°C° 0 mm 1 mps 668 mmHg 55%
    09:00 +26°C° 0 mm 1 mps 668 mmHg 39%
    10:00 +29°C° 0 mm 1 mps 669 mmHg 23%
    11:00 +31°C° 0 mm 1 mps 669 mmHg 19%
    12:00 +33°C° 0 mm 1 mps 668 mmHg 16%
    13:00 +35°C° 0 mm 1 mps 668 mmHg 12%
    14:00 +35°C° 0 mm 1 mps 667 mmHg 12%
    15:00 +35°C° 0 mm 1 mps 667 mmHg 12%
    16:00 +34°C° 0 mm 1 mps 666 mmHg 11%
    17:00 +32°C° 0 mm 1 mps 666 mmHg 15%
    18:00 +29°C° 0 mm 1 mps 666 mmHg 18%
    19:00 +27°C° 0 mm 2 mps 666 mmHg 21%
    20:00 +26°C° 0 mm 2 mps 667 mmHg 31%
    21:00 +24°C° 0 mm 2 mps 667 mmHg 41%
    22:00 +22°C° 0 mm 3 mps 667 mmHg 51%
    23:00 +21°C° 0 mm 3 mps 667 mmHg 57%
    Show more